Home > Weather > Tuba City > Past weeks

Flag for USA Weather for the Past 2 Weeks in Tuba City, Arizona, USA

Now
62 °F

Sunny.


Feels Like: 62 °F
Forecast: 43 / 82 °F
Wind: 7 mph from Southeast

Location: Grand Canyon National Park Airport

Current Time: May 4, 2016 at 10:13:02 AM

Latest Report: May 4, 2016 at 8:54 AM


Visibility: 10 mi

Pressure: 30.06 "Hg (25.16 "Hg at 1510m altitude)

Humidity: 32%

Dew Point: 32 °F

Location of Tuba CityLocation

Historic Weather in Tuba City — Graph

°F

Tuba City Temperature Yesterday

Maximum temperature yesterday: 66 °F (at 3:54 PM)
Minimum temperature yesterday: 31 °F (at 3:54 AM)
Average temperature yesterday: 50 °F

High & Low Weather Summary for the Past Weeks

 TemperatureHumidityPressure
High74 °F (Apr 21, 2:54 PM)97% (Apr 28, 1:04 PM)30.15 "Hg (Apr 28, 1:04 PM)
Low24 °F (Apr 24, 4:54 AM)7% (Apr 21, 4:54 PM)29.52 "Hg (Apr 25, 1:54 PM)
Average46 °F53%29.87 "Hg
* Reported Apr 19 7:54 AM — May 4 7:54 AM, Tuba City, Weather by CustomWeather, © 2016

Note: Actual official high and low records may vary slightly from our data, if they occured in-between our weather recording intervals... More about our weather records

Advertising

Tuba City Weather History for the Previous 24 Hours

Scroll right to see more
 ConditionsComfort  
Time TempWeatherWind HumidityBarometerVisibility
7:54 AM
Wed, May 4
55 °FSunny.5 mph40%30.01 "Hg10 mi
6:54 AM36 °FSunny.No wind79%30.07 "Hg10 mi
5:54 AM35 °FClear.No wind78%30.07 "Hg10 mi
4:54 AM37 °FClear.No wind76%30.06 "Hg10 mi
3:54 AM40 °FClear.No wind70%30.05 "Hg10 mi
2:54 AM50 °FClear.9 mph44%30.02 "Hg10 mi
1:54 AM42 °FClear.5 mph65%30.07 "Hg10 mi
12:54 AM49 °FClear.8 mph48%30.05 "Hg10 mi
11:54 PM
Tue, May 3
51 °FClear.5 mph44%30.06 "Hg10 mi
10:54 PM43 °FClear.No wind62%30.09 "Hg10 mi
9:54 PM45 °FClear.No wind58%30.09 "Hg10 mi
8:54 PM48 °FClear.3 mph52%30.09 "Hg10 mi
7:54 PM62 °FSunny.8 mph22%30.03 "Hg10 mi
6:54 PM65 °FSunny.9 mph21%30.05 "Hg10 mi
5:54 PM65 °FSunny.7 mph22%30.05 "Hg10 mi
4:54 PM66 °FSunny.12 mph21%30.06 "Hg10 mi
3:54 PM66 °FSunny.12 mph26%30.09 "Hg10 mi
2:54 PM63 °FSunny.8 mph28%30.11 "Hg10 mi
1:54 PM62 °FSunny.13 mph31%30.11 "Hg10 mi
12:54 PM61 °FSunny.12 mph35%30.13 "Hg10 mi
11:54 AM59 °FSunny.15 mph38%30.15 "Hg10 mi
10:54 AM57 °FSunny.16 mph42%30.14 "Hg10 mi
Weather by CustomWeather, © 2016

See weather overviewHow to use our weather pages